Location: Erlen
(47.5481°N, 9.2342°E)
Time: 12:43:17
(UTC+00:00)

Daily predictions for brighter satellites

Satellite Brightness Start Highest point End
(mag) Time Altitude Azimuth Time Altitude Azimuth Time Altitude Azimuth
Ariane Rocket 3.1 19:13:10 10° SSE 19:18:11 72° ENE 19:23:15 10° N
Cosmos 1833 Rocket 3.9 19:14:40 10° NNW 19:19:35 29° NE 19:24:29 10° ESE
SL-4 R/B 3.9 19:16:54 10° W 19:20:27 25° SW 19:24:10 10° SSE
Cosmos 1500 Rocket 4.2 19:16:51 10° NNW 19:21:11 59° W 19:25:27 10° S
Cosmos 1745 Rocket 4.0 19:16:07 10° N 19:22:20 72° E 19:28:27 10° SSE
Resurs 1-3 3.7 19:18:05 10° SSE 19:22:26 69° ENE 19:26:49 10° N
Cosmos 1709 Rocket 4.4 19:18:47 10° N 19:24:39 45° ENE 19:30:28 10° SSE
BREEZE-M DEB (TANK) 4.0 19:25:13 10° W 19:29:27 66° SSW 19:37:08 10° ESE
Cosmos 1666 Rocket 4.0 19:25:58 10° N 19:30:12 44° ENE 19:34:22 10° SSE
USA 307 3.9 19:30:15 10° WNW 19:34:20 42° NNE 19:38:25 10° E
Cosmos 1437 4.2 19:33:36 10° SE 19:35:31 17° E 19:37:28 10° NE
Cosmos 968 Rocket 4.1 19:32:38 10° SW 19:37:50 62° WNW 19:43:02 10° NNE
NOSS 3-3 (A) 4.2 19:33:15 10° S 19:38:38 45° ESE 19:44:43 10° NE
NOSS 3-3 (C) 4.2 19:33:22 10° S 19:38:45 44° ESE 19:44:49 10° NE
Intercosmos 24 3.6 19:37:41 10° S 19:41:21 77° E 19:44:58 10° NNE
ATLAS 2AS CENTAUR R/B 4.2 19:34:53 10° NW 19:41:31 31° NNE 19:47:45 10° E
Cosmos 1354 Rocket 4.0 19:36:47 10° S 19:41:55 61° ESE 19:47:06 10° NNE
S3M 4.1 19:37:31 10° S 19:43:54 87° E 19:50:16 10° N
Sich 1 3.2 19:40:04 10° NNW 19:44:24 80° W 19:48:46 10° S
USA 245 4.1 19:43:37 11° E 19:44:45 15° ENE 19:46:10 10° NNE
SJ 16-02 3.1 19:42:35 11° SE 19:44:53 15° E 19:47:27 10° ENE
OBJECT-B 2.8 19:43:52 10° SSW 19:46:42 28° W 19:49:34 10° NW
Meteor 1-26 Rocket 4.3 19:42:16 10° S 19:47:46 56° E 19:53:10 10° NNE
SPOT 1/Viking Rocket 4.1 19:42:57 10° SE 19:47:50 44° ENE 19:52:46 10° N
USA 308 3.7 19:43:51 10° WNW 19:48:01 47° NNE 19:52:10 10° E
Cosmos 2315 Rocket 4.2 19:43:30 10° SSE 19:49:40 55° E 19:55:52 10° NNE
Cosmos 1500 3.9 19:49:50 10° N 19:53:21 36° ENE 19:56:07 14° SE
BREEZE M DEB (TANK) 2.4 19:51:27 10° W 19:57:20 66° N 19:59:41 11° E
Terra 3.5 19:54:09 10° ESE 19:57:29 20° ENE 20:00:53 10° NNE
Meteor 1-14 Rocket 4.5 19:53:26 10° N 19:59:14 58° ENE 20:04:21 13° SSE
Cosmos 2082 Rocket 3.4 19:54:29 10° NNW 19:59:27 31° NE 20:03:59 12° ESE
Cosmos 1151 Rocket 3.0 19:57:55 10° S 20:02:15 68° E 20:06:37 10° NNE
SPOT 3 Rocket 3.6 19:57:14 10° SSE 20:02:24 90° NNW 20:07:35 10° NNW
X-37B 1.7 20:00:07 10° W 20:02:58 30° SSW 20:04:43 18° SSE
SPOT 5 4.1 19:59:20 13° ESE 20:03:08 31° ENE 20:07:45 10° N
CREW DRAGON DEMO-1 DEB 3.2 20:00:41 10° WNW 20:03:16 48° NNE 20:05:17 15° E
COSMOS 2406 3.5 20:00:29 10° NNW 20:06:06 58° ENE 20:10:34 16° SE
Cosmos 2084 3.3 20:02:49 10° SSW 20:06:54 62° SE 20:11:06 10° NE
Resurs 01 Rocket 1.8 20:02:38 10° S 20:07:04 72° WSW 20:11:32 10° NNW
USA 290 4.1 20:05:23 10° NW 20:08:08 26° WSW 20:10:53 10° SSW
Cosmos 1933 4.3 20:10:04 10° SSW 20:13:59 49° WNW 20:17:55 10° N
Cosmos 1538 Rocket 4.4 20:09:41 10° NNW 20:14:58 54° ENE 20:18:46 18° SE
Cosmos 773 Rocket 4.1 20:13:03 10° NNW 20:18:23 81° WSW 20:22:41 16° SSE
MetOp-B 4.2 20:15:10 12° SSE 20:20:10 82° WSW 20:25:34 10° NNW
Cosmos 1271 Rocket 3.9 20:19:15 21° SE 20:20:49 27° E 20:24:13 10° NNE
Cosmos 2278 Rocket 2.4 20:19:36 10° S 20:25:03 52° ESE 20:30:32 10° NE
Spot 2 Rocket 3.5 20:22:06 18° SSE 20:25:49 70° ENE 20:30:51 10° N
BREEZE-M DEB (TANK) 1.5 20:24:39 10° WNW 20:26:47 55° N 20:27:56 22° E
Landsat 7 4.2 20:23:02 11° S 20:27:32 61° W 20:32:16 10° NNW
Cosmos 1782 3.2 20:23:41 10° SSW 20:27:38 63° W 20:31:36 10° N
IGS 5A 4.3 20:24:31 10° S 20:28:31 47° W 20:32:33 10° NNW
USA 305 3.0 20:24:18 10° WNW 20:28:34 72° NNE 20:31:22 21° ESE
Cosmos 1242 Rocket 4.3 20:27:06 10° SW 20:30:21 32° WNW 20:33:34 10° N
Cosmos 1943 Rocket 4.1 20:32:27 11° E 20:32:33 11° E 20:34:10 10° ENE
Cosmos 1515 Rocket 3.6 20:29:37 17° S 20:32:57 64° E 20:37:19 10° NNE
ERS-1 Rocket 3.2 20:30:20 22° SE 20:33:28 55° ENE 20:38:23 10° N
BREEZE-M DEB (TANK) 4.4 20:27:06 10° WNW 20:33:45 29° SW 20:35:39 18° S
CZ-4C R/B 3.1 20:30:31 10° NW 20:37:45 78° SW 20:43:47 21° SSE
Cosmos 1633 Rocket 4.1 20:35:25 10° NNW 20:39:35 43° W 20:43:38 11° SSW
Meteor 1-11 Rocket 4.1 20:38:38 10° N 20:44:30 54° ENE 20:47:53 25° SE
deb Kosmos-1763 3.9 20:43:04 10° NNW 20:46:38 90° ENE 20:47:57 36° SSE
ATLAS 5 CENTAUR R/B 3.7 20:41:48 10° WNW 20:46:50 31° WSW 20:51:47 13° S
USA 306 2.8 20:43:37 10° WNW 20:47:55 89° NE 20:49:58 30° ESE
Cosmos 1812 2.8 20:47:18 18° SSW 20:50:04 77° W 20:53:57 10° N
Cosmos 1328 Rocket 4.4 20:45:51 10° SSW 20:50:09 49° WNW 20:54:28 10° N
Cosmos 1470 Rocket 4.1 20:47:32 10° NNW 20:51:56 56° W 20:55:01 19° SSW
Cosmos 1777 Rocket 4.2 20:46:50 10° SSW 20:52:01 74° WNW 20:57:15 10° NNE
Cosmos 1340 Rocket 4.2 20:50:52 10° N 20:54:22 26° ENE 20:55:28 23° E
ARIANE 5 R/B 2.8 20:52:22 24° S 20:54:51 67° WSW 20:59:12 10° NNW
Cosmos 1666 2.7 20:55:16 10° NNW 20:59:00 74° W 21:00:28 35° S
CARTOSAT-1 3.8 20:56:43 26° S 20:59:04 66° W 21:03:22 10° NNW
Meteor 2-12 Rocket 4.4 20:56:02 10° N 21:02:07 70° ENE 21:05:22 29° SSE
Cosmos 1833 Rocket 3.1 20:58:19 10° NW 21:03:51 56° WSW 21:07:04 25° S
Meteor 1-5 Rocket 4.5 20:59:39 10° NNW 21:04:58 60° W 21:08:22 22° S
Cosmos 1933 Rocket 3.9 21:01:55 10° NNW 21:06:12 59° W 21:08:25 27° SSW
Cosmos 2154 Rocket 4.1 21:00:04 10° N 21:06:24 68° ENE 21:09:42 29° SSE
BREEZE-M R/B 2.5 21:04:26 10° W 21:06:48 53° N 21:07:49 30° ENE
SL-24 DEB 4.3 21:05:35 35° SE 21:07:17 59° E 21:11:49 10° N
Cosmos 923 Rocket 4.1 21:02:36 10° NNW 21:07:52 67° ENE 21:10:12 33° SE
Cosmos 1898 Rocket 4.3 21:07:15 30° SE 21:08:23 33° E 21:13:07 10° NE
Meteor 1-10 Rocket 4.2 21:05:30 20° S 21:09:31 90° ESE 21:15:13 10° NNE
Cosmos 1536 3.0 21:05:35 10° N 21:09:35 55° ENE 21:10:33 43° SE
Cosmos 2184 Rocket 4.0 21:07:35 10° NNW 21:13:50 77° W 21:17:33 26° S
Cosmos 1743 3.7 21:10:25 10° N 21:13:56 33° ENE 21:14:28 31° E
USA 307 2.9 21:10:16 10° WNW 21:14:31 67° SW 21:15:38 46° SSE
H-2A R/B 3.4 21:12:53 10° NNE 21:17:05 69° ESE 21:18:18 44° S
Cosmos 2074 Rocket 4.2 21:12:03 10° NNW 21:18:19 70° W 21:22:13 24° S
NOSS 3-4 (A) 3.9 21:12:59 10° NW 21:19:58 78° SW 21:24:07 30° SSE
NOSS 3-4 (C) 3.9 21:13:05 10° NW 21:20:04 79° SW 21:24:12 30° SSE
Cosmos 990 Rocket 4.2 21:20:01 37° SSE 21:21:41 52° ESE 21:26:47 10° NNE
SJ 16-02 1.8 21:19:30 16° SW 21:22:56 62° WNW 21:27:22 10° NNE
Nadezhda 1 Rocket 3.9 21:19:52 27° S 21:23:30 80° E 21:29:46 10° N
Cosmos 2297 4.2 21:22:46 35° SE 21:24:02 40° ESE 21:29:17 10° NE
Cosmos 1733 Rocket 3.9 21:23:05 10° N 21:27:03 34° ENE 21:27:49 31° E
USA 308 3.1 21:23:54 10° WNW 21:28:06 54° SW 21:28:43 49° S
ATLAS 2AS CENTAUR R/B 2.8 21:26:07 10° NW 21:33:35 82° NE 21:37:04 33° SE
Terra 2.1 21:33:01 36° SSW 21:34:48 60° W 21:39:32 10° NNW
Iridium 4 Rocket 4.5 21:30:58 18° SSW 21:35:09 52° W 21:40:57 10° N
USA 215 4.3 21:29:54 10° E 21:36:01 44° NNE 21:42:07 10° NW
Cosmos 1544 2.8 21:33:15 10° N 21:36:52 82° ENE 21:37:03 78° SE
SPOT 5 3.9 21:38:33 25° SSW 21:41:02 41° W 21:46:02 10° NNW
ERBS 3.9 21:39:20 10° NW 21:42:20 30° NNE 21:43:15 25° ENE
Cosmos 2082 Rocket 2.6 21:38:21 10° NW 21:43:48 52° WSW 21:45:50 35° SSW
Cosmos 2181 Rocket 4.4 21:44:37 36° SE 21:46:25 46° E 21:52:13 10° NNE
Cosmos 2112 Rocket 4.0 21:41:10 10° NNW 21:46:34 90° W 21:48:11 47° SSE
Cosmos 2228 Rocket 3.8 21:45:34 29° SW 21:47:34 50° WNW 21:51:56 10° N
Cosmos 44 3.5 21:44:56 10° NW 21:50:25 84° NE 21:51:59 47° SE
Cosmos 967 Rocket 4.5 21:49:30 38° S 21:51:43 59° ESE 21:57:53 10° NE
Cosmos 2366 rocket 4.3 21:47:47 10° N 21:53:49 52° ENE 21:55:56 37° SE
Spot 4 4.3 21:55:19 43° ESE 21:56:25 52° ENE 22:01:09 10° N
Cosmos 2084 Rocket 3.6 21:54:14 10° NW 21:58:29 67° NE 21:59:14 55° E
BREEZE-M DEB (TANK) 4.1 21:55:48 10° W 22:01:46 40° N 22:03:26 19° NE
Cosmos 2341 Rocket 4.0 21:55:20 10° N 22:01:46 89° ENE 22:04:08 42° S
Meteor 1-27 Rocket 4.3 21:58:45 24° SW 22:02:11 57° WNW 22:08:03 10° N
Cosmos 1515 3.6 22:04:29 74° NE 22:04:29 74° NE 22:08:03 10° NNE
USA 305 4.4 22:04:38 10° WNW 22:07:27 25° WSW 22:07:27 25° WSW
Cosmos 2278 Rocket 3.9 22:04:24 10° WSW 22:09:24 31° NW 22:14:26 10° NNE
Cosmos 1937 Rocket 3.3 22:09:31 55° S 22:10:38 80° ESE 22:15:51 10° NNE
Cosmos 1862 Rocket 3.4 22:10:39 67° ESE 22:10:47 67° E 22:15:04 10° NNE
Cosmos 489 Rocket 4.5 22:04:55 10° NNW 22:11:10 73° ENE 22:13:17 43° SE
SL-24 R/B - RUBIN 2 3.9 22:06:55 10° NW 22:12:22 67° WSW 22:13:07 58° S
Cosmos 1680 Rocket 4.1 22:08:31 10° NNW 22:13:37 47° WSW 22:14:52 40° SW
Cosmos 1943 Rocket 2.1 22:13:55 51° S 22:15:17 73° ESE 22:20:53 10° NNE
Cosmos 2218 Rocket 4.0 22:09:57 10° N 22:16:17 78° E 22:18:16 46° SSE
Cosmos 2369 Rocket 2.6 22:17:10 41° ESE 22:17:30 42° ESE 22:22:47 10° NE
Meteor 1-19 Rocket 4.0 22:19:24 56° SSE 22:20:31 76° E 22:25:55 10° NNE
Gbstr 26 Del rocket 4.0 22:13:25 10° WNW 22:20:50 90° N 22:23:48 34° ESE
Cosmos 1238 Rocket 3.8 22:17:34 10° NNW 22:23:47 74° W 22:25:13 51° SSW
Cosmos 858 Rocket 4.4 22:24:21 51° SSW 22:25:42 82° WNW 22:30:59 10° NNE
Gblst 52 Del rocket 4.5 22:19:00 10° WNW 22:26:02 83° NNE 22:29:37 27° ESE
Meteor 2-9 Rocket 4.2 22:21:24 10° NNW 22:27:14 84° W 22:28:36 54° S
Okean 1 3.5 22:29:36 64° W 22:29:39 64° W 22:33:38 10° N
Okean 1-7 3.9 22:31:00 36° E 22:31:00 36° E 22:34:35 10° NNE
Cosmos 1340 Rocket 4.2 22:27:14 10° NNW 22:30:46 28° W 22:31:03 28° W
Cosmos 1818 3.5 22:27:53 10° NW 22:33:22 70° WSW 22:34:12 60° S
Cosmos 1656 Rocket 4.3 22:35:34 36° ESE 22:35:35 36° ESE 22:40:36 10° NE
DNEPR-1 R/B 4.0 22:34:46 40° SW 22:36:54 83° NW 22:41:51 10° NE
SL-8 Rocket 4.2 22:33:21 10° NNW 22:39:36 63° W 22:41:32 43° SSW
ALOS 2 2.5 22:41:06 77° ESE 22:41:15 78° ENE 22:45:40 10° N
Cosmos 2263 4.5 22:43:18 48° SE 22:43:49 49° ESE 22:49:24 10° NE
Meteor 2-4 Rocket 3.7 22:47:05 58° SSE 22:48:12 76° E 22:53:50 10° NNE
SL-27 R/B 3.9 22:51:24 10° N 22:53:51 32° NE 22:53:51 32° NE
SL-08 R/B 4.4 22:50:36 10° N 22:56:51 88° E 22:58:29 53° S
BREEZE-M DEB (TANK) 4.0 22:42:31 10° WNW 22:57:13 76° SSW 22:58:40 50° SE
Cosmos 1975 3.6 22:57:03 10° NNW 23:00:28 43° WNW 23:00:28 43° WNW
RESURS DK-1 2.5 22:59:29 10° NNW 23:03:31 68° NE 23:03:31 68° NE
Cosmos 2150 Rocket 4.1 23:04:29 57° SE 23:04:53 59° ESE 23:10:06 10° NNE
Cosmos 1833 4.2 23:02:10 10° NNW 23:07:58 78° ENE 23:09:23 53° SE
Cosmos 1461 3.4 23:07:22 55° W 23:08:08 66° NW 23:12:45 10° NNE
Cosmos 372 Rocket 4.2 23:07:02 48° WSW 23:08:10 61° WNW 23:13:14 10° NNE
SeaSat 1 3.2 23:04:11 10° NE 23:08:32 37° ESE 23:08:32 37° ESE
Cosmos 2242 Rocket 3.5 23:09:02 80° W 23:09:02 80° W 23:13:32 10° N
Meteor 1-12 Rocket 4.3 23:05:30 10° N 23:11:25 74° ENE 23:12:44 54° SE
ISS -1.4 23:18:16 19° ENE 23:18:16 19° ENE 23:19:24 10° ENE
Cosmos 468 4.3 23:12:36 10° NNW 23:17:54 79° WSW 23:18:27 69° SSW
USA 215 3.3 23:13:57 21° ESE 23:18:38 82° NNE 23:25:11 10° NW
Cosmos 494 Rocket 3.9 23:14:11 10° NNW 23:19:25 82° ENE 23:20:07 66° SE
Cosmos 1908 Rocket 4.2 23:15:30 10° NNW 23:19:43 45° W 23:19:43 45° W
Cosmos 1300 Rocket 4.1 23:17:09 10° N 23:21:26 47° ENE 23:21:41 47° E
Okean 2 Rocket 3.9 23:19:22 10° N 23:23:31 40° ENE 23:23:56 39° E
ATLAS 2AS CENTAUR R/B 3.9 23:18:08 10° WNW 23:23:40 24° WSW 23:24:29 24° WSW
Nimbus 7 Rocket 4.3 23:19:14 10° NNE 23:25:07 82° WNW 23:26:37 53° SSW
Cosmos 1867 3.5 23:25:56 65° SSW 23:26:48 86° SE 23:32:19 10° NE
Cosmos 1125 Rocket 3.4 23:26:49 66° SSE 23:27:18 72° ESE 23:32:31 10° NNE
Cosmos 44 Rocket 3.9 23:24:22 10° NNW 23:29:34 59° NE 23:31:23 38° ESE
Cosmos 1378 3.7 23:34:53 56° N 23:34:53 56° N 23:37:56 10° N
ATLAS CENTAUR R/B 1.9 23:38:29 46° NE 23:38:29 46° NE 23:41:17 10° NE
Cosmos 1821 Rocket 4.2 23:33:33 10° NNW 23:39:51 60° W 23:41:25 47° SW
Cosmos 2344 4.3 23:30:41 10° NW 23:39:56 88° SW 23:51:08 15° SE
Cosmos 1934 Rocket 3.9 23:34:21 10° N 23:40:33 82° E 23:42:10 52° SSE
USA 281 4.1 23:36:59 14° ESE 23:42:14 44° NE 23:48:24 10° NNW
Cosmos 1726 4.5 23:40:10 10° NNE 23:42:33 16° ENE 23:43:27 15° E
USA 81 4.4 23:44:09 10° N 23:49:24 59° E 23:50:37 47° SE
Okean 3 3.7 23:50:46 59° WNW 23:50:46 59° WNW 23:54:55 10° N
Cosmos 1782 Rocket 4.5 23:47:26 10° NNW 23:51:22 37° W 23:51:22 37° W
Lacrosse 5 2.8 23:54:51 33° ESE 23:54:51 33° ESE 23:58:52 10° ENE
